Weather History for Pamplona, Spain

Change the Weather History Date:

Saturday, October 27, 2012

  Actual Average Record
Temperature  
Mean Temperature 48 °F -  
Max Temperature 57 °F 53 °F 75 °F (2006)
Min Temperature 39 °F 41 °F 32 °F (2010)
Degree Days  
Heating Degree Days 17    
Moisture  
Dew Point 41 °F    
Average Humidity 79    
Maximum Humidity 100    
Minimum Humidity 46    
Precipitation  
Precipitation 0.00 in - - ()
Sea Level Pressure  
Sea Level Pressure 29.77 in    
Wind  
Wind Speed 13 mph ()    
Max Wind Speed 33 mph    
Max Gust Speed 43 mph    
Visibility 6.0 miles    
Events Rain    
Averages and records for this station are not official NWS values.
T = Trace of Precipitation, MM = Missing Value Source: Averaged Metar Reports

Daily Weather History Graph

Daily Weather History Graph

Search for Another Location

Airport:

Trip Planner

Search our weather history database for the weather conditions in past years. The results will help you decide how hot, cold, wet, or windy it might be!

Date:

Astronomy

Oct. 27, 2012 Rise Set
Actual Time 8:34 AM CEST 7:05 PM CEST
Civil Twilight 8:05 AM CEST 7:34 PM CEST
Nautical Twilight 7:32 AM CEST 8:07 PM CEST
Astronomical Twilight 6:59 AM CEST 8:40 PM CEST
Moon 5:45 PM CEST (10/27) 6:13 AM CEST (10/27)
Length of Visible Light 11h 28m
Length of Day
10h 30m
Waxing Gibbous, 95% of the Moon is Illuminated
Oct 27
Waxing Gibbous
Oct 29
Full
Nov 7
Last Quarter
Nov 13
New
Nov 20
First Quarter

Hourly Weather History & Observations

Time (CEST) Temp. Windchill Dew Point Humidity Pressure Visibility Wind Dir Wind Speed Gust Speed Precip Events Conditions
12:00 AM 57.2 °F - 53.6 °F 88% 29.53 in 6.2 mi Calm Calm - N/A   Scattered Clouds
5:30 AM 55.4 °F - 53.6 °F 94% 29.53 in 6.2 mi Variable 1.2 mph - N/A Rain Light Rain
6:30 AM 55.4 °F - 53.6 °F 94% 29.53 in 6.2 mi NW 5.8 mph - N/A Rain Light Rain
7:00 AM 53.6 °F - 53.6 °F 100% 29.53 in 6.2 mi NW 6.9 mph - N/A Rain Light Rain
7:30 AM 55.4 °F - 53.6 °F 94% 29.56 in 6.2 mi NNW 6.9 mph - N/A Rain Light Rain
8:00 AM 55.4 °F - 51.8 °F 88% 29.56 in 6.2 mi NNW 11.5 mph - N/A Rain Light Rain
8:30 AM 53.6 °F - 51.8 °F 94% 29.59 in 6.2 mi NNW 12.7 mph - N/A Rain Light Rain
9:00 AM 53.6 °F - 51.8 °F 94% 29.59 in 6.2 mi NNW 11.5 mph - N/A Rain Light Rain
9:30 AM 53.6 °F - 50.0 °F 88% 29.62 in 6.2 mi NNW 17.3 mph - N/A   Mostly Cloudy
10:00 AM 53.6 °F - 50.0 °F 88% 29.65 in 6.2 mi NNW 16.1 mph - N/A   Mostly Cloudy
10:30 AM 51.8 °F - 50.0 °F 94% 29.65 in 6.2 mi NNW 13.8 mph - N/A   Mostly Cloudy
11:00 AM 51.8 °F - 48.2 °F 88% 29.68 in 6.2 mi North 17.3 mph - N/A   Mostly Cloudy
11:30 AM 50.0 °F - 48.2 °F 94% 29.71 in 5.6 mi NNW 20.7 mph - N/A   Mostly Cloudy
12:00 PM 48.2 °F - 42.8 °F 82% 29.74 in 5.6 mi NW 23.0 mph 35.7 mph N/A   Mostly Cloudy
12:30 PM 46.4 °F 38.1 °F 39.2 °F 76% 29.77 in 5.6 mi North 24.2 mph - N/A   Scattered Clouds
1:00 PM 48.2 °F - 35.6 °F 62% 29.77 in 5.6 mi North 33.4 mph - N/A   Scattered Clouds
2:00 PM 48.2 °F - 28.4 °F 46% 29.80 in 5.6 mi North 25.3 mph - N/A   Mostly Cloudy
2:30 PM 48.2 °F - 30.2 °F 50% 29.80 in 5.6 mi North 26.5 mph 39.1 mph N/A   Mostly Cloudy
3:00 PM 50.0 °F - 32.0 °F 50% 29.80 in 5.6 mi North 23.0 mph - N/A   Scattered Clouds
3:30 PM 50.0 °F - 35.6 °F 58% 29.80 in 6.2 mi North 23.0 mph 34.5 mph N/A   Scattered Clouds
4:00 PM 48.2 °F - 33.8 °F 58% 29.80 in 6.2 mi North 20.7 mph 36.8 mph N/A   Scattered Clouds
4:30 PM 46.4 °F 38.5 °F 35.6 °F 66% 29.83 in 6.2 mi North 21.9 mph - N/A   Mostly Cloudy
5:00 PM 46.4 °F 38.7 °F 35.6 °F 66% 29.83 in 6.2 mi North 20.7 mph 32.2 mph N/A   Mostly Cloudy
5:30 PM 44.6 °F 37.4 °F 33.8 °F 66% 29.86 in 6.2 mi North 16.1 mph - N/A   Mostly Cloudy
6:00 PM 41.0 °F 33.5 °F 37.4 °F 87% 29.86 in 5.6 mi NNW 13.8 mph - N/A Rain Light Rain
6:30 PM 39.2 °F 32.0 °F 37.4 °F 93% 29.89 in 5.0 mi NW 11.5 mph - N/A Rain Light Rain
7:00 PM 39.2 °F 31.2 °F 37.4 °F 93% 29.92 in 4.3 mi NNW 13.8 mph - N/A Rain Light Rain
7:30 PM 39.2 °F 33.0 °F 35.6 °F 87% 29.92 in 6.2 mi North 9.2 mph - N/A Rain Light Rain
8:00 PM 41.0 °F 31.9 °F 32.0 °F 70% 29.92 in 6.2 mi North 19.6 mph - N/A   Mostly Cloudy
8:30 PM 41.0 °F 30.9 °F 33.8 °F 76% 29.95 in 6.2 mi North 24.2 mph - N/A   Mostly Cloudy
9:00 PM 41.0 °F 32.8 °F 33.8 °F 76% 29.95 in 6.2 mi North 16.1 mph - N/A   Mostly Cloudy
9:30 PM 41.0 °F 31.4 °F 33.8 °F 76% 29.95 in 6.2 mi North 21.9 mph - N/A   Scattered Clouds
10:00 PM 41.0 °F 30.9 °F 33.8 °F 76% 29.95 in 6.2 mi North 24.2 mph 39.1 mph N/A   Scattered Clouds
10:30 PM 41.0 °F 30.0 °F 33.8 °F 76% 29.98 in 6.2 mi North 28.8 mph 42.6 mph N/A   Scattered Clouds
11:00 PM 41.0 °F 30.9 °F 30.2 °F 65% 29.98 in 6.2 mi North 24.2 mph 35.7 mph N/A   Scattered Clouds
11:30 PM 39.2 °F 29.3 °F 32.0 °F 75% 30.01 in 6.2 mi North 20.7 mph - N/A   Scattered Clouds